www.pogodaiklimat.ru
Время
(UTC), дата
09 29.11
12 29.11
15 29.11
18 29.11
21 29.11
00 30.11
03 30.11
06 30.11
09 30.11
12 30.11
15 30.11
18 30.11
21 30.11
00 1.12
03 1.12
06 1.12
09 1.12
12 1.12
15 1.12
18 1.12
21 1.12
00 2.12
03 2.12
06 2.12
09 2.12
12 2.12
15 2.12
18 2.12
21 2.12
00 3.12
03 3.12
06 3.12
09 3.12
12 3.12
15 3.12
18 3.12
21 3.12
00 4.12
03 4.12
06 4.12
09 4.12
12 4.12
15 4.12
18 4.12
21 4.12
00 5.12
03 5.12
06 5.12
09 5.12
12 5.12
15 5.12
18 5.12
21 5.12
00 6.12
03 6.12
06 6.12
Ветер
(напр.,м/с)
Видим. Явления Облачность Т
(С)
Тd
(С)
f
(%)
Тe
(С)
Тes
(С)
Комфортность P
(гПа)
Po
(гПа)
Тmin
(С)
Tmax
(С)
R
(мм)
R24
(мм)
S
(см)
В 5 2700 м слаб. дождь {туман} 10/10 90 м
[Sc]
+3.5 +3.3 99 -2 -2 по сезону 1010.5 991.4
ЮВ 6 2300 м слаб. дождь {туман} 10/8 90 м
[Frnb As op]
+4.6 +4.1 97 -1 -1 по сезону 1007.8 988.9 0.7
ЮВ 7 2700 м слаб. дождь 10/8 90 м
[Frnb As op]
+6.3 +6.1 99 +1 +1 тепло 1005.8 987.0
ЮВ 6 4300 м слаб. дождь 10/8 120 м
[Frnb As op]
+7.5 +7.1 97 +3 +3 тепло 1003.8 985.2 +7.5 2
ЮВ 6 3000 м слаб. дождь 10/8 120 м
[Frnb As op]
+7.8 +7.4 97 +3 +3 тепло 1002.1 983.5
ЮВ 5 4500 м слаб. дождь 10/8 120 м
[Frnb As op]
+7.2 +6.8 97 +3 +3 тепло 1000.7 982.1 5
ЮВ 2 1500 м в посл. час дождь 10/8 90 м
[Frnb As op]
+6.9 +6.7 99 +4 +4 тепло 1000.4 981.8
СЗ 3 5000 м в посл. час туман {дождь} 10/10 90 м
[St]
+7.0 +6.6 97 +4 +4 тепло 1001.5 982.9 +6.5 7
З 6 10 км 10/10 90 м
[St]
+4.9 +4.2 95 -1 -1 по сезону 1003.6 984.8
З 5 7000 м дымка 10/10 120 м
[Sc]
+4.4 +3.7 95 -1 -1 по сезону 1005.5 986.6
З 4 10 км 8/8 270 м
[Sc]
+4.7 +3.0 89 0 0 тепло 1008.0 989.1
З 5 10 км 3/0
[Ac trans]
+2.8 +1.5 91 -3 -3 по сезону 1009.3 990.2 +7.0
З 3 10 км 3/3 1000 м
[Sc]
+1.2 -0.5 88 -3 -3 по сезону 1010.8 991.6
З 4 10 км 9/9 630 м
[Sc]
+1.0 -0.4 90 -4 -4 по сезону 1012.0 992.7
З 4 10 км 9/9 570 м
[Sc]
+0.6 -2.3 81 -5 -5 по сезону 1012.6 993.3
СЗ 4 10 км 8/8 540 м
[Sc]
-1.1 -4.0 81 -7 -7 по сезону 1014.6 995.1 -1.3
СЗ 6 10 км 5/5 700 м
[Sc]
-0.6 -6.2 66 -7 -7 по сезону 1015.9 996.4
СЗ 5 10 км 4/4 900 м
[Sc]
+1.0 -6.2 59 -4 -4 по сезону 1017.8 998.4
СЗ 4 10 км 8/8 870 м
[Sc]
-0.5 -4.3 75 -6 -6 по сезону 1020.3 1000.8
З 3 10 км 6/6 700 м
[Sc]
-1.4 -3.7 84 -6 -6 по сезону 1022.1 1002.5 +1.0
З 3 10 км ясно -2.5 -4.1 89 -8 -8 по сезону 1024.1 1004.3
З 2 10 км ясно -3.6 -4.7 92 -8 -8 по сезону 1025.6 1005.7
ЮЗ 1 6000 м дымка ясно -5.0 -5.6 96 -8 -8 по сезону 1026.2 1006.2
Ю 2 10 км дымка 3/3 1200 м
[Sc]
-4.2 -5.1 93 -9 -9 по сезону 1026.4 1006.5 -6.0
ЮЗ 4 10 км 6/3 300 м
[St Ci fib]
-0.3 -3.7 78 -6 -5 по сезону 1025.8 1006.2
Ю 3 10 км 9/6 800 м
[Sc Ci]
-0.3 -4.4 74 -5 -5 по сезону 1024.5 1004.9
ЮВ 4 10 км 10/0
[Cs]
-1.9 -3.4 89 -8 -8 по сезону 1023.2 1003.5
ЮВ 3 7000 м дымка 10/0
[Ac As]
-2.0 -2.9 94 -7 -7 по сезону 1021.4 1001.7 0.0
ЮВ 7 10 км 10/3 300 м
[St Ac und]
-1.2 -2.5 91 -9 -9 по сезону 1018.2 998.7
ЮВ 6 1300 м снег 10/8 330 м
[Frnb As op]
-2.4 -3.3 94 -10 -10 по сезону 1014.9 995.3
ЮВ 5 400 м ливневой снег 10/10 180 м
[Cb cap]
-2.1 -2.7 96 -9 -9 по сезону 1010.4 990.9
ЮЗ 1 2200 м слаб. снег 10/8 180 м
[Frnb As op]
-1.4 -2.2 94 -4 -4 по сезону 1008.7 989.3 -2.6 9 10
З 5 10 км {снег} 10/10 570 м
[Sc]
-1.3 -3.0 88 -8 -8 по сезону 1010.0 990.6
З 6 10 км {снег} 10/10 500 м
[Sc]
-1.5 -4.5 80 -8 -8 прохладно 1011.2 991.8 0.0
З 6 10 км 10/10 800 м
[Sc]
-1.9 -5.0 79 -9 -9 прохладно 1013.7 994.2
СЗ 5 10 км 10/10 600 м
[Sc]
-2.0 -5.5 77 -8 -8 по сезону 1016.3 996.7 -1.3 0.0
З 3 10 км 10/10 900 м
[Sc]
-2.1 -4.9 81 -7 -7 по сезону 1018.2 998.6
З 3 10 км слаб. снег 10/10 450 м
[Sc]
-2.2 -4.0 87 -7 -7 по сезону 1020.4 1000.7
СЗ 4 10 км {снег} 10/10 800 м
[Sc]
-2.1 -4.9 81 -8 -8 по сезону 1022.1 1002.4
З 4 10 км {снег} 8/8 1000 м
[Sc]
-3.2 -7.5 72 -9 -9 по сезону 1024.0 1004.2 -3.2 0.0 9
З 6 7000 м слаб. ливневой снег 9/9 480 м
[Cb cap]
-1.6 -4.6 80 -9 -8 по сезону 1024.4 1004.7
З 4 10 км {ливн. осадки} 4/4 600 м
[Sc]
-1.0 -5.3 73 -6 -6 по сезону 1024.6 1004.9
ЮЗ 3 10 км 6/6 600 м
[Sc]
-3.0 -5.7 82 -8 -8 по сезону 1024.7 1004.9
ЮЗ 5 10 км 6/0
[Ac trans]
-3.7 -6.6 80 -11 -11 прохладно 1024.6 1004.7 -1.0 0.3
ЮЗ 5 10 км 9/0
[Ac trans]
-3.6 -6.1 83 -10 -10 по сезону 1024.0 1004.2
ЮЗ 6 10 км слаб. ливневой снег 10/10 450 м
[Cb cap]
-2.9 -5.6 82 -10 -10 по сезону 1022.5 1002.7
З 4 10 км в посл. час ливневой снег 10/10 330 м
[Cb cap]
-1.9 -3.7 87 -8 -8 по сезону 1021.8 1002.1
ЮЗ 6 4600 м в посл. час ливневой снег 10/10 210 м
[Sc]
-1.1 -2.4 91 -8 -8 по сезону 1022.6 1003.0 -4.8 0.2 9
З 4 5000 м в посл. час морось 10/10 150 м
[St]
+0.5 -0.6 92 -5 -5 по сезону 1023.1 1003.6
З 5 6000 м дымка 10/10 150 м
[St]
+1.1 +0.3 94 -5 -5 по сезону 1023.1 1003.6
З 5 4500 м дымка 10/10 120 м
[St]
+1.0 +0.2 94 -5 -5 по сезону 1023.5 1004.0
З 4 3600 м дымка 10/10 90 м
[St]
+0.8 +0.2 96 -5 -5 по сезону 1024.0 1004.5 +1.1 0.0
З 5 4100 м дымка 10/10 120 м
[St]
+0.7 +0.1 96 -5 -5 по сезону 1024.1 1004.6
ЮЗ 3 4600 м дымка 10/10 150 м
[St]
+1.0 +0.2 94 -4 -4 по сезону 1024.5 1005.0
ЮЗ 3 6000 м дымка ясно -0.8 -1.8 93 -6 -6 по сезону 1023.8 1004.2
Ю 5 10 км ясно -1.8 -3.9 86 -8 -8 по сезону 1023.7 1004.0 -2.2 6
Местоположение метеостанции Харьков (Харьковская область, Украина): широта 49.97 долгота 36.13 высота над уровнем моря 155 м.
В архиве по умолчанию представлена погода в Харькове за последнюю неделю. Архивные данные за месяц целиком и за предыдущие месяцы, начиная с января 2011 года, Вы можете получить, выбрав интересующий диапазон дат из раскрывающегося списка и нажав кнопку "Найти!".
*Определитесь, кто Вы:
Внимание! Время в таблицах - всемирное. Для получения местного времени необходимо прибавить поправку, которая равна 2 ч.
Смотрите также архив погоды в соседних городах и на ближайших метеорологических станциях:
Партнеры нашего сайта:      
Пояснения к столбцам:
  • Ветер - указаны скорость ветра в м/с - средняя за 10 мин, порывы в срок и между сроками (в фигурных скобках) и направление, откуда дует ветер: С - северный,
  • СВ - северо-восточный, В - восточный, ЮВ - юго-восточный, Ю - южный, ЮЗ - юго-западный, З - западный, СЗ - северо-западный.
  • Видимость - горизонтальная дальность видимости в метрах или километрах. При видимости от 1 до 10 км при отсутствии осадков обычно наблюдается дымка, при ухудшении видимости до 1 км и менее - туман. В сухую погоду видимость может ухудшаться дымом, пылью или мглою.
  • Явления - указаны атмосферные явления, наблюдавшиеся в срок или в последний час перед сроком; фигурными скобками обозначены явления, наблюдавшиеся между сроками (за 1-3 часа до срока); квадратными скобками обозначены град или гололедные отложения с указанием их диаметра в мм.
  • Облачность - указаны через наклонную черту общая и нижняя облачность в баллах и высота нижней границы облаков в метрах; квадратными скобками обозначены формы облаков: Ci - перистые, Cs - перисто-слоистые, Cc - перисто-кучевые, Ac - высококучевые, As - высокослоистые, Sc - слоисто-кучевые, Ns - слоисто-дождевые, Cu - кучевые, Cb - кучево-дождевые. Подробнее классификацию облаков см. в Атласе облаков (PDF).
  • T - Температура воздуха - температура, измеренная на высоте 2 м над землей.
  • Td - Температура точки росы - температура, при понижении до которой содержащийся в воздухе водяной пар достигнет насыщения.
  • f - Относительная влажность воздуха - влажноcть воздуха, измеренная на высоте 2 м над землей.
  • Te - Эффективная температура - температура, которую ощущает одетый по сезону человек в тени. Характеристика душности погоды. При расчете учитывается влияние влажности воздуха и скорости ветра на теплоощущения человека.
  • Tes - Эффективная температура на солнце - температура, которую ощущает человек, с поправкой на солнечный нагрев. Характеристика знойности погоды. Зависит от высоты солнца над горизонтом, облачности и скорости ветра. Ночью, в пасмурную погоду, а также при ветре 12 м/с и более поправка равна нулю.
  • P - Атмосферное давление - приведенное к уровню моря атмосферное давление.
  • Po - Атмосферное давление - измеренное на уровне метеостанции атмосферное давление.
  • Tmin - Минимальная температура - минимум температуры воздуха на высоте 2 м над землей.
  • Tmax - Максимальная температура - максимум температуры воздуха на высоте 2 м над землей.
  • R - Количество осадков - Количество выпавших осадков за период времени, мм. При наведении курсора мыши на число - период времени, за который выпало указанное количество осадков.
  • R24 - Количество осадков - Количество выпавших осадков за 24 часа, мм.
  • S - Снежный покров - Высота снежного покрова, см. При наведении курсора мыши на число - состояние снежного покрова и степень покрытия местности в баллах.